Weather Roundup
Issued by NWS Chicago, IL

Home | Current Version | Previous Version | Graphics & Text | Print | Product List | Glossary On
Versions: 1 2 3 4 5 6 7 8 9 10 11 12 13 14 15 16 17 18 19 20 21 22 23 24 25 26 27 28 29 30 31 32 33 34 35 36 37 38 39 40 41 42 43 44 45 46 47 48 49 50
688
NZUS59 KLOT 171808
HRRLOT

CHICAGO AREA WEATHER ROUNDUP
NATIONAL WEATHER SERVICE CHICAGO/ROMEOVILLE IL
1200 PM CST TUE JAN 17 2017

NOTE: "FAIR" INDICATES FEW OR NO CLOUDS BELOW 12,000 FEET WITH NO
SIGNIFICANT WEATHER AND/OR OBSTRUCTIONS TO VISIBILITY.

* THESE STATIONS ARE NOT UNDER NWS QUALITY CONTROL. THEY ALSO MAY NOT
  REPORT WEATHER SUCH AS PRECIPITATION OR FOG.

ILZ005-006-012>014-019>023-171900-
NORTHEAST ILLINOIS

CITY           SKY/WX    TMP DP  RH WIND       PRES   REMARKS
OHARE          CLOUDY    38  36  92 W13       29.85S
6HR MIN TEMP:  36; 6HR MAX TEMP:  39; 6HR PCP: TRACE;

MIDWAY         CLOUDY    37  36  96 W14       29.86F
6HR MIN TEMP:  35; 6HR MAX TEMP:  38;

AURORA         NOT AVBL
LANSING*       CLOUDY    38  38 100 W13       29.86F
JOLIET*        CLOUDY    38  38  99 W5        29.89S
WAUKEGAN       CLOUDY    38  36  92 VRB5      29.83F FOG
6HR MIN TEMP:  36; 6HR MAX TEMP:  38;

DUPAGE AIRPORT CLOUDY    38  35  89 W9        29.85S
6HR MIN TEMP:  36; 6HR MAX TEMP:  38;

WHEELING       CLOUDY    39  36  89 W9        29.85F
6HR MIN TEMP:  37; 6HR MAX TEMP:  39; 6HR PCP:  0.01;

KANKAKEE*      CLOUDY    38  38  98 W13       29.90S
MORRIS*        CLOUDY    37  36  98 W9        29.88F FOG
LEWIS AIRPORT* CLOUDY    37  37 100 W12       29.87F
NORTHERLY ISL    N/A     39  36  89 W8          N/A
$$

WIZ051-052-058>065-066-070>072-171900-
SOUTHEAST WISCONSIN

CITY           SKY/WX    TMP DP  RH WIND       PRES   REMARKS
MILWAUKEE      CLOUDY    39  36  89 W9        29.83F
6HR MIN TEMP:  37; 6HR MAX TEMP:  39; 6HR PCP: TRACE;

KENOSHA*       CLOUDY    37  35  92 W10       29.83F FOG
RACINE*          N/A     37  36  96 MISG      29.84F
WAUKESHA       CLOUDY    34  34 100 W9        29.84F FOG     WCI  26
WEST BEND      CLOUDY    34  34 100 W8        29.83S FOG     WCI  27
$$

INZ001>003-010>013-019-020-171900-
NORTHWEST INDIANA

CITY           SKY/WX    TMP DP  RH WIND       PRES   REMARKS
GARY*          CLOUDY    41  37  87 W14       29.86
MICHIGAN CITY* NOT AVBL
RENSSELAER*    NOT AVBL
VALPARAISO     CLOUDY    41  40  96 W14       29.86S
$$

LMZ740>746-171900-
SOUTHERN LAKE MICHIGAN

STATION/POSITION TIME  SKY/WX   TEMP WIND        PRES    VSBY
                                AIR  DIR/SP/G
                 (UTC)          (F)  (DEG/KT/KT) (MB)    (MI)
HARRISON CRIB    1740            40  260/ 10/ 11   N/A
BURNHAM HARBOR   1800            39  230/  7/ 14   N/A
CALUMET HARBOR   1742            39  230/  6/ 12 1010.6F
BURNS HARBOR     1740            37  240/ 10/ 12 1011.9S
MICHIGAN CITY    NOT AVBL
$$

ABBREVIATIONS USED IN REMARKS
   TC - TEMPERATURE IN CELSIUS
  WCI - WIND CHILL INDEX
   HX - HEAT INDEX
  VSB - VISIBILITY
$$




USA.gov is the U.S. government's official web portal to all federal, state and local government web resources and services.